Year,Month,Day,Hour,Minute,Value (Times are PST for temperature in C)
2011,10,19,00,00,8.40
2011,10,19,00,01,8.40
2011,10,19,00,02,8.40
2011,10,19,00,03,8.40
2011,10,19,00,04,8.40
2011,10,19,00,05,8.40
2011,10,19,00,06,8.40
2011,10,19,00,07,8.40
2011,10,19,00,08,8.40
2011,10,19,00,09,8.40
2011,10,19,00,10,8.40
2011,10,19,00,11,8.40
2011,10,19,00,12,8.40
2011,10,19,00,13,8.40
2011,10,19,00,14,8.40
2011,10,19,00,15,8.40
2011,10,19,00,16,8.40
2011,10,19,00,17,8.40
2011,10,19,00,18,8.40
2011,10,19,00,19,8.40
2011,10,19,00,20,8.40
2011,10,19,00,21,8.40
2011,10,19,00,22,8.40
2011,10,19,00,23,8.40
2011,10,19,00,24,8.40
2011,10,19,00,25,8.40
2011,10,19,00,26,8.40
2011,10,19,00,27,8.40
2011,10,19,00,28,8.40
2011,10,19,00,29,8.40
2011,10,19,00,30,8.40
2011,10,19,00,31,8.40
2011,10,19,00,32,8.40
2011,10,19,00,33,8.40
2011,10,19,00,34,8.40
2011,10,19,00,35,8.40
2011,10,19,00,36,8.40
2011,10,19,00,37,8.50
2011,10,19,00,38,8.50
2011,10,19,00,39,8.50
2011,10,19,00,40,8.50
2011,10,19,00,41,8.50
2011,10,19,00,42,8.50
2011,10,19,00,43,8.50
2011,10,19,00,44,8.50
2011,10,19,00,45,8.50
2011,10,19,00,46,8.50
2011,10,19,00,47,8.50
2011,10,19,00,48,8.50
2011,10,19,00,49,8.50
2011,10,19,00,50,8.50
2011,10,19,00,51,8.50
2011,10,19,00,52,8.50
2011,10,19,00,53,8.50
2011,10,19,00,54,8.50
2011,10,19,00,55,8.50
2011,10,19,00,56,8.50
2011,10,19,00,57,8.50
2011,10,19,00,58,8.50
2011,10,19,00,59,8.50
2011,10,19,01,00,8.50
2011,10,19,01,01,8.50
2011,10,19,01,02,8.50
2011,10,19,01,03,8.50
2011,10,19,01,04,8.50
2011,10,19,01,05,8.50
2011,10,19,01,06,8.50
2011,10,19,01,07,8.50
2011,10,19,01,08,8.50
2011,10,19,01,09,8.50
2011,10,19,01,10,8.50
2011,10,19,01,11,8.50
2011,10,19,01,12,8.50
2011,10,19,01,13,8.50
2011,10,19,01,14,8.40
2011,10,19,01,15,8.40
2011,10,19,01,16,8.40
2011,10,19,01,17,8.40
2011,10,19,01,18,8.40
2011,10,19,01,19,8.40
2011,10,19,01,20,8.40
2011,10,19,01,21,8.40
2011,10,19,01,22,8.40
2011,10,19,01,23,8.40
2011,10,19,01,24,8.40
2011,10,19,01,25,8.40
2011,10,19,01,26,8.30
2011,10,19,01,27,8.30
2011,10,19,01,28,8.30
2011,10,19,01,29,8.30
2011,10,19,01,30,8.30
2011,10,19,01,31,8.30
2011,10,19,01,32,8.30
2011,10,19,01,33,8.30
2011,10,19,01,34,8.30
2011,10,19,01,35,8.30
2011,10,19,01,36,8.30
2011,10,19,01,37,8.30
2011,10,19,01,38,8.30
2011,10,19,01,39,8.30
2011,10,19,01,40,8.30
2011,10,19,01,41,8.30
2011,10,19,01,42,8.30
2011,10,19,01,43,8.30
2011,10,19,01,44,8.30
2011,10,19,01,45,8.30
2011,10,19,01,46,8.40
2011,10,19,01,47,8.30
2011,10,19,01,48,8.30
2011,10,19,01,49,8.40
2011,10,19,01,50,8.40
2011,10,19,01,51,8.40
2011,10,19,01,52,8.30
2011,10,19,01,53,8.30
2011,10,19,01,54,8.30
2011,10,19,01,55,8.30
2011,10,19,01,56,8.30
2011,10,19,01,57,8.30
2011,10,19,01,58,8.30
2011,10,19,01,59,8.30
2011,10,19,02,00,8.30
2011,10,19,02,01,8.20
2011,10,19,02,02,8.20
2011,10,19,02,03,8.20
2011,10,19,02,04,8.20
2011,10,19,02,05,8.20
2011,10,19,02,06,8.20
2011,10,19,02,07,8.20
2011,10,19,02,08,8.20
2011,10,19,02,09,8.20
2011,10,19,02,10,8.20
2011,10,19,02,11,8.20
2011,10,19,02,12,8.10
2011,10,19,02,13,8.10
2011,10,19,02,14,8.10
2011,10,19,02,15,8.10
2011,10,19,02,16,8.10
2011,10,19,02,17,8.10
2011,10,19,02,18,8.10
2011,10,19,02,19,8.20
2011,10,19,02,20,8.20
2011,10,19,02,21,8.20
2011,10,19,02,22,8.20
2011,10,19,02,23,8.20
2011,10,19,02,24,8.20
2011,10,19,02,25,8.20
2011,10,19,02,26,8.20
2011,10,19,02,27,8.20
2011,10,19,02,28,8.20
2011,10,19,02,29,8.20
2011,10,19,02,30,8.20
2011,10,19,02,31,8.20
2011,10,19,02,32,8.20
2011,10,19,02,33,8.10
2011,10,19,02,34,8.20
2011,10,19,02,35,8.10
2011,10,19,02,36,8.10
2011,10,19,02,37,8.10
2011,10,19,02,38,8.10
2011,10,19,02,39,8.10
2011,10,19,02,40,8.10
2011,10,19,02,41,8.10
2011,10,19,02,42,8.10
2011,10,19,02,43,8.10
2011,10,19,02,44,8.00
2011,10,19,02,45,8.00
2011,10,19,02,46,8.00
2011,10,19,02,47,8.00
2011,10,19,02,48,7.90
2011,10,19,02,49,7.90
2011,10,19,02,50,7.90
2011,10,19,02,51,7.90
2011,10,19,02,52,7.90
2011,10,19,02,53,7.90
2011,10,19,02,54,7.80
2011,10,19,02,55,7.80
2011,10,19,02,56,7.80
2011,10,19,02,57,7.80
2011,10,19,02,58,7.80
2011,10,19,02,59,7.80
2011,10,19,03,00,7.80
2011,10,19,03,01,7.80
2011,10,19,03,02,7.80
2011,10,19,03,03,7.80
2011,10,19,03,04,7.80
2011,10,19,03,05,7.80
2011,10,19,03,06,7.90
2011,10,19,03,07,7.90
2011,10,19,03,08,7.90
2011,10,19,03,09,7.90
2011,10,19,03,10,7.90
2011,10,19,03,11,7.90
2011,10,19,03,12,7.90
2011,10,19,03,13,7.90
2011,10,19,03,14,7.80
2011,10,19,03,15,7.80
2011,10,19,03,16,7.80
2011,10,19,03,17,7.80
2011,10,19,03,18,7.80
2011,10,19,03,19,7.80
2011,10,19,03,20,7.80
2011,10,19,03,21,7.80
2011,10,19,03,22,7.80
2011,10,19,03,23,7.80
2011,10,19,03,24,7.80
2011,10,19,03,25,7.80
2011,10,19,03,26,7.80
2011,10,19,03,27,7.80
2011,10,19,03,28,7.80
2011,10,19,03,29,7.80
2011,10,19,03,30,7.80
2011,10,19,03,31,7.70
2011,10,19,03,32,7.70
2011,10,19,03,33,7.70
2011,10,19,03,34,7.70
2011,10,19,03,35,7.70
2011,10,19,03,36,7.70
2011,10,19,03,37,7.70
2011,10,19,03,38,7.70
2011,10,19,03,39,7.70
2011,10,19,03,40,7.70
2011,10,19,03,41,7.70
2011,10,19,03,42,7.70
2011,10,19,03,43,7.70
2011,10,19,03,44,7.70
2011,10,19,03,45,7.70
2011,10,19,03,46,7.70
2011,10,19,03,47,7.70
2011,10,19,03,48,7.70
2011,10,19,03,49,7.70
2011,10,19,03,50,7.70
2011,10,19,03,51,7.70
2011,10,19,03,52,7.70
2011,10,19,03,53,7.60
2011,10,19,03,54,7.60
2011,10,19,03,55,7.60
2011,10,19,03,56,7.60
2011,10,19,03,57,7.60
2011,10,19,03,58,7.60
2011,10,19,03,59,7.60
2011,10,19,04,00,7.70
2011,10,19,04,01,7.70
2011,10,19,04,02,7.70
2011,10,19,04,03,7.70
2011,10,19,04,04,7.70
2011,10,19,04,05,7.80
2011,10,19,04,06,7.80
2011,10,19,04,07,7.80
2011,10,19,04,08,7.80
2011,10,19,04,09,7.80
2011,10,19,04,10,7.80
2011,10,19,04,11,7.80
2011,10,19,04,12,7.80
2011,10,19,04,13,7.80
2011,10,19,04,14,7.80
2011,10,19,04,15,7.80
2011,10,19,04,16,7.80
2011,10,19,04,17,7.80
2011,10,19,04,18,7.70
2011,10,19,04,19,7.70
2011,10,19,04,20,7.70
2011,10,19,04,21,7.70
2011,10,19,04,22,7.70
2011,10,19,04,23,7.70
2011,10,19,04,24,7.70
2011,10,19,04,25,7.70
2011,10,19,04,26,7.70
2011,10,19,04,27,7.70
2011,10,19,04,28,7.70
2011,10,19,04,29,7.60
2011,10,19,04,30,7.60
2011,10,19,04,31,7.60
2011,10,19,04,32,7.60
2011,10,19,04,33,7.60
2011,10,19,04,34,7.60
2011,10,19,04,35,7.60
2011,10,19,04,36,7.60
2011,10,19,04,37,7.60
2011,10,19,04,38,7.60
2011,10,19,04,39,7.60
2011,10,19,04,40,7.60
2011,10,19,04,41,7.50
2011,10,19,04,42,7.50
2011,10,19,04,43,7.50
2011,10,19,04,44,7.40
2011,10,19,04,45,7.40
2011,10,19,04,46,7.40
2011,10,19,04,47,7.40
2011,10,19,04,48,7.40
2011,10,19,04,49,7.30
2011,10,19,04,50,7.30
2011,10,19,04,51,7.30
2011,10,19,04,52,7.30
2011,10,19,04,53,7.30
2011,10,19,04,54,7.30
2011,10,19,04,55,7.30
2011,10,19,04,56,7.20
2011,10,19,04,57,7.20
2011,10,19,04,58,7.20
2011,10,19,04,59,7.20
2011,10,19,05,00,7.20
2011,10,19,05,01,7.20
2011,10,19,05,02,7.20
2011,10,19,05,03,7.20
2011,10,19,05,04,7.10
2011,10,19,05,05,7.10
2011,10,19,05,06,7.10
2011,10,19,05,07,7.10
2011,10,19,05,08,7.10
2011,10,19,05,09,7.10
2011,10,19,05,10,7.10
2011,10,19,05,11,7.10
2011,10,19,05,12,7.00
2011,10,19,05,13,7.00
2011,10,19,05,14,7.00
2011,10,19,05,15,6.90
2011,10,19,05,16,6.90
2011,10,19,05,17,6.90
2011,10,19,05,18,6.90
2011,10,19,05,19,6.90
2011,10,19,05,20,6.90
2011,10,19,05,21,6.90
2011,10,19,05,22,6.90
2011,10,19,05,23,6.90
2011,10,19,05,24,6.90
2011,10,19,05,25,6.90
2011,10,19,05,26,6.90
2011,10,19,05,27,6.90
2011,10,19,05,28,6.90
2011,10,19,05,29,6.90
2011,10,19,05,30,6.90
2011,10,19,05,31,6.90
2011,10,19,05,32,6.90
2011,10,19,05,33,6.90
2011,10,19,05,34,6.90
2011,10,19,05,35,6.90
2011,10,19,05,36,6.90
2011,10,19,05,37,6.90
2011,10,19,05,38,6.90
2011,10,19,05,39,6.90
2011,10,19,05,40,6.90
2011,10,19,05,41,6.90
2011,10,19,05,42,6.90
2011,10,19,05,43,6.90
2011,10,19,05,44,6.90
2011,10,19,05,45,6.90
2011,10,19,05,46,6.90
2011,10,19,05,47,6.90
2011,10,19,05,48,6.90
2011,10,19,05,49,6.90
2011,10,19,05,50,6.90
2011,10,19,05,51,6.90
2011,10,19,05,52,6.90
2011,10,19,05,53,6.90
2011,10,19,05,54,7.00
2011,10,19,05,55,7.00
2011,10,19,05,56,7.00
2011,10,19,05,57,7.00
2011,10,19,05,58,7.10
2011,10,19,05,59,7.10
2011,10,19,06,00,7.10
2011,10,19,06,01,7.20
2011,10,19,06,02,7.20
2011,10,19,06,03,7.20
2011,10,19,06,04,7.30
2011,10,19,06,05,7.30
2011,10,19,06,06,7.30
2011,10,19,06,07,7.30
2011,10,19,06,08,7.30
2011,10,19,06,09,7.40
2011,10,19,06,10,7.40
2011,10,19,06,11,7.40
2011,10,19,06,12,7.40
2011,10,19,06,13,7.40
2011,10,19,06,14,7.40
2011,10,19,06,15,7.40
2011,10,19,06,16,7.40
2011,10,19,06,17,7.40
2011,10,19,06,18,7.50
2011,10,19,06,19,7.50
2011,10,19,06,20,7.50
2011,10,19,06,21,7.50
2011,10,19,06,22,7.50
2011,10,19,06,23,7.60
2011,10,19,06,24,7.60
2011,10,19,06,25,7.60
2011,10,19,06,26,7.60
2011,10,19,06,27,7.60
2011,10,19,06,28,7.60
2011,10,19,06,29,7.60
2011,10,19,06,30,7.60
2011,10,19,06,31,7.60
2011,10,19,06,32,7.60
2011,10,19,06,33,7.60
2011,10,19,06,34,7.50
2011,10,19,06,35,7.50
2011,10,19,06,36,7.50
2011,10,19,06,37,7.50
2011,10,19,06,38,7.50
2011,10,19,06,39,7.50
2011,10,19,06,40,7.50
2011,10,19,06,41,7.50
2011,10,19,06,42,7.50
2011,10,19,06,43,7.50
2011,10,19,06,44,7.50
2011,10,19,06,45,7.50
2011,10,19,06,46,7.50
2011,10,19,06,47,7.50
2011,10,19,06,48,7.50
2011,10,19,06,49,7.50
2011,10,19,06,50,7.50
2011,10,19,06,51,7.50
2011,10,19,06,52,7.50
2011,10,19,06,53,7.50
2011,10,19,06,54,7.50
2011,10,19,06,55,7.60
2011,10,19,06,56,7.60
2011,10,19,06,57,7.60
2011,10,19,06,58,7.60
2011,10,19,06,59,7.60
2011,10,19,07,00,7.60
2011,10,19,07,01,7.60
2011,10,19,07,02,7.60
2011,10,19,07,03,7.70
2011,10,19,07,04,7.70
2011,10,19,07,05,7.70
2011,10,19,07,06,7.70
2011,10,19,07,07,7.70
2011,10,19,07,08,7.70
2011,10,19,07,09,7.70
2011,10,19,07,10,7.70
2011,10,19,07,11,7.70
2011,10,19,07,12,7.70
2011,10,19,07,13,7.70
2011,10,19,07,14,7.70
2011,10,19,07,15,7.70
2011,10,19,07,16,7.70
2011,10,19,07,17,7.70
2011,10,19,07,18,7.70
2011,10,19,07,19,7.70
2011,10,19,07,20,7.70
2011,10,19,07,21,7.70
2011,10,19,07,22,7.70
2011,10,19,07,23,7.70
2011,10,19,07,24,7.70
2011,10,19,07,25,7.70
2011,10,19,07,26,7.70
2011,10,19,07,27,7.70
2011,10,19,07,28,7.70
2011,10,19,07,29,7.70
2011,10,19,07,30,7.70
2011,10,19,07,31,7.70
2011,10,19,07,32,7.70
2011,10,19,07,33,7.70
2011,10,19,07,34,7.70
2011,10,19,07,35,7.70
2011,10,19,07,36,7.70
2011,10,19,07,37,7.70
2011,10,19,07,38,7.70
2011,10,19,07,39,7.70
2011,10,19,07,40,7.70
2011,10,19,07,41,7.70
2011,10,19,07,42,7.60
2011,10,19,07,43,7.60
2011,10,19,07,44,7.60
2011,10,19,07,45,7.60
2011,10,19,07,46,7.60
2011,10,19,07,47,7.60
2011,10,19,07,48,7.60
2011,10,19,07,49,7.60
2011,10,19,07,50,7.60
2011,10,19,07,51,7.60
2011,10,19,07,52,7.60
2011,10,19,07,53,7.60
2011,10,19,07,54,7.60
2011,10,19,07,55,7.60
2011,10,19,07,56,7.60
2011,10,19,07,57,7.60
2011,10,19,07,58,7.60
2011,10,19,07,59,7.60
2011,10,19,08,00,7.60
2011,10,19,08,01,7.60
2011,10,19,08,02,7.60
2011,10,19,08,03,7.60
2011,10,19,08,04,7.60
2011,10,19,08,05,7.60
2011,10,19,08,06,7.60
2011,10,19,08,07,7.60
2011,10,19,08,08,7.60
2011,10,19,08,09,7.60
2011,10,19,08,10,7.60
2011,10,19,08,11,7.60
2011,10,19,08,12,7.60
2011,10,19,08,13,7.60
2011,10,19,08,14,7.60
2011,10,19,08,15,7.60
2011,10,19,08,16,7.60
2011,10,19,08,17,7.60
2011,10,19,08,18,7.60
2011,10,19,08,19,7.70
2011,10,19,08,20,7.70
2011,10,19,08,21,7.70
2011,10,19,08,22,7.70
2011,10,19,08,23,7.70
2011,10,19,08,24,7.70
2011,10,19,08,25,7.80
2011,10,19,08,26,7.80
2011,10,19,08,27,7.80
2011,10,19,08,28,7.90
2011,10,19,08,29,7.90
2011,10,19,08,30,7.90
2011,10,19,08,31,8.00
2011,10,19,08,32,8.10
2011,10,19,08,33,8.10
2011,10,19,08,34,8.20
2011,10,19,08,35,8.20
2011,10,19,08,36,8.20
2011,10,19,08,37,8.20
2011,10,19,08,38,8.30
2011,10,19,08,39,8.30
2011,10,19,08,40,8.30
2011,10,19,08,41,8.40
2011,10,19,08,42,8.40
2011,10,19,08,43,8.50
2011,10,19,08,44,8.60
2011,10,19,08,45,8.70
2011,10,19,08,46,8.70
2011,10,19,08,47,8.80
2011,10,19,08,48,8.80
2011,10,19,08,49,8.90
2011,10,19,08,50,8.90
2011,10,19,08,51,9.00
2011,10,19,08,52,9.10
2011,10,19,08,53,9.10
2011,10,19,08,54,9.20
2011,10,19,08,55,9.30
2011,10,19,08,56,9.40
2011,10,19,08,57,9.50
2011,10,19,08,58,9.60
2011,10,19,08,59,9.60
2011,10,19,09,00,9.60
2011,10,19,09,01,9.70
2011,10,19,09,02,9.70
2011,10,19,09,03,9.80
2011,10,19,09,04,9.80
2011,10,19,09,05,9.90
2011,10,19,09,06,9.90
2011,10,19,09,07,9.90
2011,10,19,09,08,10.00
2011,10,19,09,09,10.10
2011,10,19,09,10,10.10
2011,10,19,09,11,10.20
2011,10,19,09,12,10.20
2011,10,19,09,13,10.30
2011,10,19,09,14,10.30
2011,10,19,09,15,10.40
2011,10,19,09,16,10.40
2011,10,19,09,17,10.50
2011,10,19,09,18,10.50
2011,10,19,09,19,10.60
2011,10,19,09,20,10.60
2011,10,19,09,21,10.60
2011,10,19,09,22,10.70
2011,10,19,09,23,10.70
2011,10,19,09,24,10.70
2011,10,19,09,25,10.70
2011,10,19,09,26,10.70
2011,10,19,09,27,10.60
2011,10,19,09,28,10.60
2011,10,19,09,29,10.50
2011,10,19,09,30,10.50
2011,10,19,09,31,10.50
2011,10,19,09,32,10.50
2011,10,19,09,33,10.40
2011,10,19,09,34,10.40
2011,10,19,09,35,10.40
2011,10,19,09,36,10.40
2011,10,19,09,37,10.40
2011,10,19,09,38,10.40
2011,10,19,09,39,10.40
2011,10,19,09,40,10.40
2011,10,19,09,41,10.40
2011,10,19,09,42,10.40
2011,10,19,09,43,10.40
2011,10,19,09,44,10.30
2011,10,19,09,45,10.30
2011,10,19,09,46,10.30
2011,10,19,09,47,10.30
2011,10,19,09,48,10.30
2011,10,19,09,49,10.30
2011,10,19,09,50,10.40
2011,10,19,09,51,10.40
2011,10,19,09,52,10.40
2011,10,19,09,53,10.40
2011,10,19,09,54,10.40
2011,10,19,09,55,10.40
2011,10,19,09,56,10.40
2011,10,19,09,57,10.40
2011,10,19,09,58,10.50
2011,10,19,09,59,10.50
2011,10,19,10,00,10.50
2011,10,19,10,01,10.60
2011,10,19,10,02,10.60
2011,10,19,10,03,10.70
2011,10,19,10,04,10.70
2011,10,19,10,05,10.70
2011,10,19,10,06,10.80
2011,10,19,10,07,10.90
2011,10,19,10,08,10.90
2011,10,19,10,09,11.00
2011,10,19,10,10,11.10
2011,10,19,10,11,11.20
2011,10,19,10,12,11.30
2011,10,19,10,13,11.40
2011,10,19,10,14,11.50
2011,10,19,10,15,11.50
2011,10,19,10,16,11.60
2011,10,19,10,17,11.70
2011,10,19,10,18,11.70
2011,10,19,10,19,11.80
2011,10,19,10,20,11.80
2011,10,19,10,21,11.90
2011,10,19,10,22,12.00
2011,10,19,10,23,12.10
2011,10,19,10,24,12.10
2011,10,19,10,25,12.20
2011,10,19,10,26,12.20
2011,10,19,10,27,12.20
2011,10,19,10,28,12.20
2011,10,19,10,29,12.30
2011,10,19,10,30,12.30
2011,10,19,10,31,12.30
2011,10,19,10,32,12.40
2011,10,19,10,33,12.40
2011,10,19,10,34,12.40
2011,10,19,10,35,12.40
2011,10,19,10,36,12.40
2011,10,19,10,37,12.30
2011,10,19,10,38,12.30
2011,10,19,10,39,12.30
2011,10,19,10,40,12.30
2011,10,19,10,41,12.30
2011,10,19,10,42,12.30
2011,10,19,10,43,12.30
2011,10,19,10,44,12.40
2011,10,19,10,45,12.40
2011,10,19,10,46,12.40
2011,10,19,10,47,12.50
2011,10,19,10,48,12.50
2011,10,19,10,49,12.60
2011,10,19,10,50,12.60
2011,10,19,10,51,12.60
2011,10,19,10,52,12.60
2011,10,19,10,53,12.60
2011,10,19,10,54,12.60
2011,10,19,10,55,12.50
2011,10,19,10,56,12.50
2011,10,19,10,57,12.50
2011,10,19,10,58,12.50
2011,10,19,10,59,12.50
2011,10,19,11,00,12.50
2011,10,19,11,01,12.50
2011,10,19,11,02,12.50
2011,10,19,11,03,12.60
2011,10,19,11,04,12.60
2011,10,19,11,05,12.60
2011,10,19,11,06,12.60
2011,10,19,11,07,12.70
2011,10,19,11,08,12.70
2011,10,19,11,09,12.70
2011,10,19,11,10,12.70
2011,10,19,11,11,12.70
2011,10,19,11,12,12.80
2011,10,19,11,13,12.80
2011,10,19,11,14,12.80
2011,10,19,11,15,12.80
2011,10,19,11,16,12.80
2011,10,19,11,17,12.80
2011,10,19,11,18,12.80
2011,10,19,11,19,12.80
2011,10,19,11,20,12.80
2011,10,19,11,21,12.90
2011,10,19,11,22,12.90
2011,10,19,11,23,12.90
2011,10,19,11,24,13.00
2011,10,19,11,25,13.00
2011,10,19,11,26,13.10
2011,10,19,11,27,13.10
2011,10,19,11,28,13.10
2011,10,19,11,29,13.10
2011,10,19,11,30,13.10
2011,10,19,11,31,13.10
2011,10,19,11,32,13.10
2011,10,19,11,33,13.10
2011,10,19,11,34,13.10
2011,10,19,11,35,13.10
2011,10,19,11,36,13.10
2011,10,19,11,37,13.10
2011,10,19,11,38,13.10
2011,10,19,11,39,13.10
2011,10,19,11,40,13.10
2011,10,19,11,41,13.10
2011,10,19,11,42,13.10
2011,10,19,11,43,13.10
2011,10,19,11,44,13.10
2011,10,19,11,45,13.10
2011,10,19,11,46,13.10
2011,10,19,11,47,13.10
2011,10,19,11,48,13.10
2011,10,19,11,49,13.10
2011,10,19,11,50,13.10
2011,10,19,11,51,13.10
2011,10,19,11,52,13.10
2011,10,19,11,53,13.10
2011,10,19,11,54,13.10
2011,10,19,11,55,13.10
2011,10,19,11,56,13.20
2011,10,19,11,57,13.20
2011,10,19,11,58,13.20
2011,10,19,11,59,13.20
2011,10,19,12,00,13.30
2011,10,19,12,01,13.30
2011,10,19,12,02,13.30
2011,10,19,12,03,13.40
2011,10,19,12,04,13.40
2011,10,19,12,05,13.50
2011,10,19,12,06,13.50
2011,10,19,12,07,13.60
2011,10,19,12,08,13.60
2011,10,19,12,09,13.70
2011,10,19,12,10,13.70
2011,10,19,12,11,13.80
2011,10,19,12,12,13.80
2011,10,19,12,13,13.80
2011,10,19,12,14,13.90
2011,10,19,12,15,13.90
2011,10,19,12,16,14.00
2011,10,19,12,17,14.00
2011,10,19,12,18,14.10
2011,10,19,12,19,14.10
2011,10,19,12,20,14.20
2011,10,19,12,21,14.20
2011,10,19,12,22,14.30
2011,10,19,12,23,14.30
2011,10,19,12,24,14.40
2011,10,19,12,25,14.50
2011,10,19,12,26,14.60
2011,10,19,12,27,14.70
2011,10,19,12,28,14.80
2011,10,19,12,29,14.90
2011,10,19,12,30,15.00
2011,10,19,12,31,15.10
2011,10,19,12,32,15.20
2011,10,19,12,33,15.30
2011,10,19,12,34,15.40
2011,10,19,12,35,15.50
2011,10,19,12,36,15.60
2011,10,19,12,37,15.70
2011,10,19,12,38,15.70
2011,10,19,12,39,15.80
2011,10,19,12,40,15.80
2011,10,19,12,41,15.90
2011,10,19,12,42,16.00
2011,10,19,12,43,16.00
2011,10,19,12,44,16.10
2011,10,19,12,45,16.10
2011,10,19,12,46,16.10
2011,10,19,12,47,16.10
2011,10,19,12,48,16.10
2011,10,19,12,49,16.10
2011,10,19,12,50,16.10
2011,10,19,12,51,16.10
2011,10,19,12,52,16.20
2011,10,19,12,53,16.20
2011,10,19,12,54,16.20
2011,10,19,12,55,16.20
2011,10,19,12,56,16.20
2011,10,19,12,57,16.20
2011,10,19,12,58,16.20
2011,10,19,12,59,16.30
2011,10,19,13,00,16.30
2011,10,19,13,01,16.20
2011,10,19,13,02,16.20
2011,10,19,13,03,16.20
2011,10,19,13,04,16.20
2011,10,19,13,05,16.20
2011,10,19,13,06,16.20
2011,10,19,13,07,16.20
2011,10,19,13,08,16.20
2011,10,19,13,09,16.20
2011,10,19,13,10,16.20
2011,10,19,13,11,16.20
2011,10,19,13,12,16.20
2011,10,19,13,13,16.20
2011,10,19,13,14,16.30
2011,10,19,13,15,16.30
2011,10,19,13,16,16.30
2011,10,19,13,17,16.30
2011,10,19,13,18,16.30
2011,10,19,13,19,16.30
2011,10,19,13,20,16.30
2011,10,19,13,21,16.30
2011,10,19,13,22,16.40
2011,10,19,13,23,16.40
2011,10,19,13,24,16.40
2011,10,19,13,25,16.40
2011,10,19,13,26,16.40
2011,10,19,13,27,16.50
2011,10,19,13,28,16.50
2011,10,19,13,29,16.50
2011,10,19,13,30,16.50
2011,10,19,13,31,16.50
2011,10,19,13,32,16.50
2011,10,19,13,33,16.50
2011,10,19,13,34,16.50
2011,10,19,13,35,16.60
2011,10,19,13,36,16.60
2011,10,19,13,37,16.60
2011,10,19,13,38,16.70
2011,10,19,13,39,16.70
2011,10,19,13,40,16.70
2011,10,19,13,41,16.70
2011,10,19,13,42,16.80
2011,10,19,13,43,16.70
2011,10,19,13,44,16.70
2011,10,19,13,45,16.70
2011,10,19,13,46,16.70
2011,10,19,13,47,16.60
2011,10,19,13,48,16.60
2011,10,19,13,49,16.60
2011,10,19,13,50,16.60
2011,10,19,13,51,16.60
2011,10,19,13,52,16.60
2011,10,19,13,53,16.60
2011,10,19,13,54,16.60
2011,10,19,13,55,16.60
2011,10,19,13,56,16.60
2011,10,19,13,57,16.60
2011,10,19,13,58,16.70
2011,10,19,13,59,16.70
2011,10,19,14,00,16.70
2011,10,19,14,01,16.70
2011,10,19,14,02,16.80
2011,10,19,14,03,16.80
2011,10,19,14,04,16.80
2011,10,19,14,05,16.80
2011,10,19,14,06,16.80
2011,10,19,14,07,16.80
2011,10,19,14,08,16.80
2011,10,19,14,09,16.80
2011,10,19,14,10,16.80
2011,10,19,14,11,16.80
2011,10,19,14,12,16.80
2011,10,19,14,13,16.80
2011,10,19,14,14,16.70
2011,10,19,14,15,16.70
2011,10,19,14,16,16.70
2011,10,19,14,17,16.70
2011,10,19,14,18,16.70
2011,10,19,14,19,16.70
2011,10,19,14,20,16.70
2011,10,19,14,21,16.70
2011,10,19,14,22,16.70
2011,10,19,14,23,16.70
2011,10,19,14,24,16.70
2011,10,19,14,25,16.70
2011,10,19,14,26,16.60
2011,10,19,14,27,16.60
2011,10,19,14,28,16.60
2011,10,19,14,29,16.60
2011,10,19,14,30,16.60
2011,10,19,14,31,16.60
2011,10,19,14,32,16.60
2011,10,19,14,33,16.60
2011,10,19,14,34,16.50
2011,10,19,14,35,16.60
2011,10,19,14,36,16.50
2011,10,19,14,37,16.50
2011,10,19,14,38,16.50
2011,10,19,14,39,16.50
2011,10,19,14,40,16.40
2011,10,19,14,41,16.40
2011,10,19,14,42,16.40
2011,10,19,14,43,16.40
2011,10,19,14,44,16.40
2011,10,19,14,45,16.40
2011,10,19,14,46,16.40
2011,10,19,14,47,16.30
2011,10,19,14,48,16.30
2011,10,19,14,49,16.30
2011,10,19,14,50,16.30
2011,10,19,14,51,16.30
2011,10,19,14,52,16.20
2011,10,19,14,53,16.20
2011,10,19,14,54,16.10
2011,10,19,14,55,16.10
2011,10,19,14,56,16.00
2011,10,19,14,57,15.90
2011,10,19,14,58,15.90
2011,10,19,14,59,15.80
2011,10,19,15,00,15.80
2011,10,19,15,01,15.70
2011,10,19,15,02,15.70
2011,10,19,15,03,15.70
2011,10,19,15,04,15.60
2011,10,19,15,05,15.60
2011,10,19,15,06,15.60
2011,10,19,15,07,15.60
2011,10,19,15,08,15.60
2011,10,19,15,09,15.70
2011,10,19,15,10,15.70
2011,10,19,15,11,15.70
2011,10,19,15,12,15.70
2011,10,19,15,13,15.70
2011,10,19,15,14,15.70
2011,10,19,15,15,15.70
2011,10,19,15,16,15.70
2011,10,19,15,17,15.70
2011,10,19,15,18,15.60
2011,10,19,15,19,15.60
2011,10,19,15,20,15.60
2011,10,19,15,21,15.60
2011,10,19,15,22,15.60
2011,10,19,15,23,15.60
2011,10,19,15,24,15.50
2011,10,19,15,25,15.50
2011,10,19,15,26,15.50
2011,10,19,15,27,15.40
2011,10,19,15,28,15.40
2011,10,19,15,29,15.30
2011,10,19,15,30,15.30
2011,10,19,15,31,15.30
2011,10,19,15,32,15.20
2011,10,19,15,33,15.20
2011,10,19,15,34,15.20
2011,10,19,15,35,15.10
2011,10,19,15,36,15.10
2011,10,19,15,37,15.10
2011,10,19,15,38,15.20
2011,10,19,15,39,15.20
2011,10,19,15,40,15.20
2011,10,19,15,41,15.20
2011,10,19,15,42,15.20
2011,10,19,15,43,15.30
2011,10,19,15,44,15.30
2011,10,19,15,45,15.30
2011,10,19,15,46,15.30
2011,10,19,15,47,15.30
2011,10,19,15,48,15.30
2011,10,19,15,49,15.40
2011,10,19,15,50,15.40
2011,10,19,15,51,15.40
2011,10,19,15,52,15.50
2011,10,19,15,53,15.50
2011,10,19,15,54,15.50
2011,10,19,15,55,15.50
2011,10,19,15,56,15.50
2011,10,19,15,57,15.50
2011,10,19,15,58,15.60
2011,10,19,15,59,15.60
2011,10,19,16,00,15.60
2011,10,19,16,01,15.60
2011,10,19,16,02,15.70
2011,10,19,16,03,15.70
2011,10,19,16,04,15.70
2011,10,19,16,05,15.80
2011,10,19,16,06,15.80
2011,10,19,16,07,15.80
2011,10,19,16,08,15.80
2011,10,19,16,09,15.80
2011,10,19,16,10,15.90
2011,10,19,16,11,15.90
2011,10,19,16,12,15.90
2011,10,19,16,13,15.90
2011,10,19,16,14,15.90
2011,10,19,16,15,15.90
2011,10,19,16,16,15.90
2011,10,19,16,17,15.90
2011,10,19,16,18,15.90
2011,10,19,16,19,15.90
2011,10,19,16,20,15.90
2011,10,19,16,21,15.80
2011,10,19,16,22,15.80
2011,10,19,16,23,15.80
2011,10,19,16,24,15.80
2011,10,19,16,25,15.80
2011,10,19,16,26,15.70
2011,10,19,16,27,15.70
2011,10,19,16,28,15.70
2011,10,19,16,29,15.60
2011,10,19,16,30,15.60
2011,10,19,16,31,15.50
2011,10,19,16,32,15.40
2011,10,19,16,33,15.30
2011,10,19,16,34,15.20
2011,10,19,16,35,15.00
2011,10,19,16,36,14.90
2011,10,19,16,37,14.80
2011,10,19,16,38,14.70
2011,10,19,16,39,14.60
2011,10,19,16,40,14.50
2011,10,19,16,41,14.40
2011,10,19,16,42,14.30
2011,10,19,16,43,14.20
2011,10,19,16,44,14.20
2011,10,19,16,45,14.10
2011,10,19,16,46,14.10
2011,10,19,16,47,14.10
2011,10,19,16,48,14.00
2011,10,19,16,49,14.00
2011,10,19,16,50,14.00
2011,10,19,16,51,13.90
2011,10,19,16,52,13.90
2011,10,19,16,53,13.90
2011,10,19,16,54,13.90
2011,10,19,16,55,13.90
2011,10,19,16,56,13.90
2011,10,19,16,57,13.90
2011,10,19,16,58,13.80
2011,10,19,16,59,13.80
2011,10,19,17,00,13.80
2011,10,19,17,01,13.80
2011,10,19,17,02,13.80
2011,10,19,17,03,13.80
2011,10,19,17,04,13.80
2011,10,19,17,05,13.80
2011,10,19,17,06,13.80
2011,10,19,17,07,13.80
2011,10,19,17,08,13.80
2011,10,19,17,09,13.80
2011,10,19,17,10,13.80
2011,10,19,17,11,13.80
2011,10,19,17,12,13.80
2011,10,19,17,13,13.80
2011,10,19,17,14,13.80
2011,10,19,17,15,13.80
2011,10,19,17,16,13.80
2011,10,19,17,17,13.70
2011,10,19,17,18,13.70
2011,10,19,17,19,13.70
2011,10,19,17,20,13.70
2011,10,19,17,21,13.70
2011,10,19,17,22,13.70
2011,10,19,17,23,13.70
2011,10,19,17,24,13.70
2011,10,19,17,25,13.70
2011,10,19,17,26,13.70
2011,10,19,17,27,13.60
2011,10,19,17,28,13.60
2011,10,19,17,29,13.60
2011,10,19,17,30,13.60
2011,10,19,17,31,13.60
2011,10,19,17,32,13.60
2011,10,19,17,33,13.60
2011,10,19,17,34,13.60
2011,10,19,17,35,13.60
2011,10,19,17,36,13.60
2011,10,19,17,37,13.60
2011,10,19,17,38,13.60
2011,10,19,17,39,13.60
2011,10,19,17,40,13.60
2011,10,19,17,41,13.60
2011,10,19,17,42,13.60
2011,10,19,17,43,13.50